Location: *
(50.3194°N, 7.1067°E)
Time: 00:37:50
(UTC+00:00)

Cosmos 407 Rocket - Pass Details

Date: 22 September 2019
Orbit: 744 x 786 km, 74.0° (Epoch: 22 October)

Event Time Altitude Azimuth Distance (km) Brightness Sun altitude
Rises 19:01:22 0° 331° (NNW) 3,203 7.5 -15.1°
Reaches altitude 10° 19:03:49 10° 326° (NW) 2,272 6.8 -15.4°
Maximum altitude 19:08:42 46° 254° (WSW) 1,000 4.5 -16.2°
Drops below altitude 10° 19:13:33 10° 182° (S) 2,256 5.7 -16.9°
Enters shadow 19:15:49 - 177° (S) 3,123 6.4 -17.2°
